| time (UTC) | temp F | wind direction | speed MPH | gust MPH | rain 1hr in | rain 24hr in | rain mn in | humidity % | barometer mb |
| 20260504211046 | 66 | 194 | 3.0 | 14.0 | 0.00 | 0.00 | 0.00 | 33 | 1004.2 |
| 20260504210548 | 66 | 259 | 5.0 | 14.0 | 0.00 | 0.00 | 0.00 | 34 | 1004.3 |
| 20260504210046 | 66 | 241 | 4.0 | 15.0 | 0.00 | 0.00 | 0.00 | 34 | 1004.4 |
| 20260504205545 | 66 | 183 | 3.0 | 11.0 | 0.00 | 0.00 | 0.00 | 34 | 1004.4 |
| 20260504205047 | 65 | 213 | 5.0 | 12.0 | 0.00 | 0.00 | 0.00 | 35 | 1004.5 |
| 20260504204548 | 66 | 197 | 3.0 | 11.0 | 0.00 | 0.00 | 0.00 | 33 | 1004.4 |
| 20260504204044 | 67 | 234 | 4.0 | 14.0 | 0.00 | 0.00 | 0.00 | 33 | 1004.5 |
| 20260504203542 | 67 | 202 | 6.0 | 14.0 | 0.00 | 0.00 | 0.00 | 33 | 1004.6 |
| 20260504203058 | 66 | 199 | 2.0 | 17.0 | 0.00 | 0.00 | 0.00 | 35 | 1004.5 |
| 20260504202542 | 66 | 193 | 7.0 | 17.0 | 0.00 | 0.00 | 0.00 | 33 | 1004.6 |
| 20260504202046 | 66 | 212 | 3.0 | 12.0 | 0.00 | 0.00 | 0.00 | 36 | 1004.7 |
| 20260504201542 | 66 | 326 | 5.0 | 12.0 | 0.00 | 0.00 | 0.00 | 35 | 1004.7 |
| 20260504201039 | 65 | 192 | 6.0 | 12.0 | 0.00 | 0.00 | 0.00 | 35 | 1004.8 |
| 20260504200540 | 65 | 228 | 7.0 | 15.0 | 0.00 | 0.00 | 0.00 | 35 | 1004.8 |
| 20260504200039 | 65 | 216 | 3.0 | 19.0 | 0.00 | 0.00 | 0.00 | 36 | 1004.9 |
| 20260504195538 | 65 | 239 | 3.0 | 19.0 | 0.00 | 0.00 | 0.00 | 35 | 1004.9 |
| 20260504195038 | 66 | 228 | 7.0 | 15.0 | 0.00 | 0.00 | 0.00 | 35 | 1004.9 |
| 20260504194538 | 66 | 275 | 2.0 | 16.0 | 0.00 | 0.00 | 0.00 | 33 | 1004.9 |
| 20260504194037 | 67 | 255 | 4.0 | 16.0 | 0.00 | 0.00 | 0.00 | 34 | 1005.1 |
| 20260504193540 | 67 | 294 | 4.0 | 11.0 | 0.00 | 0.00 | 0.00 | 35 | 1004.9 |
| 20260504193037 | 66 | 198 | 3.0 | 11.0 | 0.00 | 0.00 | 0.00 | 39 | 1005.1 |
| 20260504192535 | 66 | 190 | 3.0 | 11.0 | 0.00 | 0.00 | 0.00 | 36 | 1005.1 |
| 20260504192035 | 66 | 241 | 3.0 | 10.0 | 0.00 | 0.00 | 0.00 | 36 | 1005.2 |
| 20260504191535 | 66 | 308 | 4.0 | 11.0 | 0.00 | 0.00 | 0.00 | 36 | 1005.3 |
| 20260504191034 | 66 | 234 | 5.0 | 11.0 | 0.00 | 0.00 | 0.00 | 36 | 1005.4 |
| 20260504190534 | 65 | 5 | 3.0 | 8.0 | 0.00 | 0.00 | 0.00 | 38 | 1005.4 |
| 20260504190037 | 65 | 200 | 3.0 | 10.0 | 0.00 | 0.00 | 0.00 | 35 | 1005.4 |
| 20260504185535 | 65 | 213 | 4.0 | 16.0 | 0.00 | 0.00 | 0.00 | 38 | 1005.4 |
| 20260504185036 | 66 | 305 | 5.0 | 16.0 | 0.00 | 0.00 | 0.00 | 34 | 1005.3 |
| 20260504184534 | 66 | 268 | 3.0 | 15.0 | 0.00 | 0.00 | 0.00 | 36 | 1005.4 |
| 20260504184033 | 66 | 257 | 9.0 | 15.0 | 0.00 | 0.00 | 0.00 | 35 | 1005.4 |
| 20260504183533 | 66 | 278 | 6.0 | 10.0 | 0.00 | 0.00 | 0.00 | 34 | 1005.4 |
| 20260504183032 | 67 | 284 | 3.0 | 19.0 | 0.00 | 0.00 | 0.00 | 36 | 1005.5 |
| 20260504182532 | 66 | 300 | 7.0 | 19.0 | 0.00 | 0.00 | 0.00 | 39 | 1005.5 |
| 20260504182031 | 66 | 186 | 6.0 | 11.0 | 0.00 | 0.00 | 0.00 | 37 | 1005.4 |
| 20260504181536 | 64 | 269 | 2.0 | 11.0 | 0.00 | 0.00 | 0.00 | 43 | 1005.5 |
| 20260504181033 | 64 | 151 | 2.0 | 11.0 | 0.00 | 0.00 | 0.00 | 37 | 1005.7 |
| 20260504180531 | 64 | 336 | 5.0 | 12.0 | 0.00 | 0.00 | 0.00 | 39 | 1005.7 |
| 20260504180028 | 64 | 202 | 4.0 | 12.0 | 0.00 | 0.00 | 0.00 | 35 | 1005.7 |
| 20260504175528 | 64 | 204 | 4.0 | 16.0 | 0.00 | 0.00 | 0.00 | 39 | 1005.7 |
| 20260504175029 | 65 | 280 | 7.0 | 16.0 | 0.00 | 0.00 | 0.00 | 35 | 1005.6 |
| 20260504174627 | 65 | 271 | 4.0 | 15.0 | 0.00 | 0.00 | 0.00 | 39 | 1005.8 |
| 20260504174027 | 65 | 186 | 5.0 | 15.0 | 0.00 | 0.00 | 0.00 | 37 | 1005.9 |
| 20260504173527 | 65 | 217 | 4.0 | 19.0 | 0.00 | 0.00 | 0.00 | 36 | 1005.8 |
| 20260504173025 | 65 | 310 | 3.0 | 18.0 | 0.00 | 0.00 | 0.00 | 38 | 1005.8 |
| 20260504172525 | 65 | 248 | 2.0 | 18.0 | 0.00 | 0.00 | 0.00 | 40 | 1005.8 |
| 20260504172025 | 64 | 306 | 4.0 | 10.0 | 0.00 | 0.00 | 0.00 | 36 | 1005.8 |
| 20260504171523 | 64 | 236 | 2.0 | 14.0 | 0.00 | 0.00 | 0.00 | 38 | 1005.8 |
| 20260504171023 | 64 | 223 | 5.0 | 17.0 | 0.00 | 0.00 | 0.00 | 38 | 1006.0 |
| 20260504170522 | 64 | 219 | 5.0 | 17.0 | 0.00 | 0.00 | 0.00 | 38 | 1006.0 |
| 20260504151001 | 58 | 290 | 4.0 | 9.0 | 0.00 | 0.00 | 0.00 | 45 | 1007.4 |
| 20260504150600 | 57 | 360 | 1.0 | 10.0 | 0.00 | 0.00 | 0.00 | 48 | 1007.3 |
| 20260504150502 | 57 | 220 | 1.0 | 10.0 | 0.00 | 0.00 | 0.00 | 45 | 1007.2 |
| 20260504150112 | 56 | 199 | 4.0 | 15.0 | 0.00 | 0.00 | 0.00 | 44 | 1007.4 |
| 20260504141047 | 52 | 360 | 5.0 | 18.0 | 0.00 | 0.00 | 0.00 | 47 | 1007.5 |
| 20260504140548 | 52 | 360 | 6.0 | 18.0 | 0.00 | 0.00 | 0.00 | 46 | 1007.4 |
| 20260504130540 | 50 | 360 | 7.0 | 15.0 | 0.00 | 0.00 | 0.00 | 49 | 1007.9 |
| 20260504110523 | 46 | 360 | 4.0 | 13.0 | 0.00 | 0.00 | 0.00 | 53 | 1008.0 |
| 20260504100515 | 45 | 360 | 3.0 | 12.0 | 0.00 | 0.00 | 0.00 | 54 | 1007.9 |
| 20260504082004 | 47 | 360 | 3.0 | 11.0 | 0.00 | 0.00 | 0.00 | 50 | 1007.9 |
| 20260504081504 | 47 | 360 | 4.0 | 11.0 | 0.00 | 0.00 | 0.00 | 50 | 1007.8 |
| 20260504081004 | 47 | 360 | 2.0 | 8.0 | 0.00 | 0.00 | 0.00 | 49 | 1007.9 |
| 20260504080503 | 47 | 360 | 1.0 | 10.0 | 0.00 | 0.00 | 0.00 | 49 | 1008.0 |
| 20260504050545 | 46 | 360 | 3.0 | 8.0 | 0.00 | 0.00 | 0.00 | 59 | 1008.5 |
| 20260504045542 | 46 | 360 | 3.0 | 6.0 | 0.00 | 0.00 | 0.00 | 62 | 1008.6 |
| 20260504045041 | 45 | 360 | 2.0 | 5.0 | 0.00 | 0.00 | 0.00 | 64 | 1008.6 |
| 20260504044545 | 45 | 360 | 2.0 | 5.0 | 0.00 | 0.00 | 0.00 | 66 | 1008.6 |
| 20260504044039 | 45 | 360 | 1.0 | 4.0 | 0.00 | 0.00 | 0.00 | 66 | 1008.7 |
| 20260504043537 | 45 | 360 | 0.0 | 6.0 | 0.00 | 0.00 | 0.00 | 68 | 1008.8 |
| 20260504043037 | 44 | 360 | 2.0 | 6.0 | 0.00 | 0.00 | 0.00 | 70 | 1008.8 |
| 20260504042535 | 44 | 360 | 1.0 | 4.0 | 0.00 | 0.00 | 0.00 | 72 | 1008.9 |
| 20260504042035 | 44 | 360 | 0.0 | 4.0 | 0.00 | 0.00 | 0.00 | 73 | 1008.9 |
| 20260504041533 | 44 | 360 | 0.0 | 4.0 | 0.00 | 0.00 | 0.00 | 76 | 1008.9 |
| 20260504041034 | 43 | 360 | 0.0 | 4.0 | 0.00 | 0.00 | 0.00 | 76 | 1008.9 |
| 20260504040532 | 43 | 360 | 2.0 | 4.0 | 0.00 | 0.00 | 0.00 | 76 | 1008.9 |
| 20260504040042 | 43 | 360 | 2.0 | 4.0 | 0.00 | 0.00 | 0.00 | 77 | 1008.9 |
| 20260504035530 | 44 | 360 | 0.0 | 2.0 | 0.00 | 0.00 | 0.00 | 77 | 1009.0 |
| 20260504035031 | 44 | 360 | 0.0 | 0.0 | 0.00 | 0.00 | 0.00 | 76 | 1009.0 |
| 20260504034531 | 43 | 360 | 0.0 | 0.0 | 0.00 | 0.00 | 0.00 | 75 | 1009.2 |
| 20260504034029 | 43 | 360 | 0.0 | 0.0 | 0.00 | 0.00 | 0.00 | 75 | 1009.3 |
| 20260504033529 | 44 | 360 | 0.0 | 0.0 | 0.00 | 0.00 | 0.00 | 75 | 1009.4 |
| 20260504033029 | 44 | 360 | 0.0 | 0.0 | 0.00 | 0.00 | 0.00 | 75 | 1009.4 |
| 20260504032529 | 44 | 360 | 0.0 | 0.0 | 0.00 | 0.00 | 0.00 | 75 | 1009.4 |
| 20260504032029 | 44 | 360 | 0.0 | 4.0 | 0.00 | 0.00 | 0.00 | 74 | 1009.5 |
| 20260504031531 | 44 | 360 | 0.0 | 8.0 | 0.00 | 0.00 | 0.00 | 74 | 1009.5 |
| 20260504031029 | 44 | 360 | 3.0 | 8.0 | 0.00 | 0.00 | 0.00 | 73 | 1009.7 |
| 20260504030528 | 44 | 360 | 4.0 | 8.0 | 0.00 | 0.00 | 0.00 | 73 | 1009.6 |
| 20260504030028 | 44 | 360 | 4.0 | 11.0 | 0.00 | 0.00 | 0.00 | 72 | 1009.7 |
| 20260504025528 | 45 | 360 | 4.0 | 13.0 | 0.00 | 0.00 | 0.00 | 70 | 1009.8 |
| 20260504025128 | 45 | 360 | 7.0 | 13.0 | 0.00 | 0.00 | 0.00 | 67 | 1009.9 |
| 20260504024527 | 46 | 360 | 6.0 | 13.0 | 0.00 | 0.00 | 0.00 | 65 | 1009.8 |
| 20260504024027 | 46 | 360 | 5.0 | 16.0 | 0.00 | 0.00 | 0.00 | 63 | 1009.7 |
| 20260504023527 | 46 | 360 | 6.0 | 15.0 | 0.00 | 0.00 | 0.00 | 62 | 1009.6 |
| 20260504023027 | 46 | 360 | 4.0 | 22.0 | 0.00 | 0.00 | 0.00 | 60 | 1009.6 |
| 20260504022527 | 45 | 360 | 5.0 | 13.0 | 0.00 | 0.00 | 0.00 | 59 | 1009.6 |
| 20260504022025 | 45 | 360 | 0.0 | 4.0 | 0.00 | 0.00 | 0.00 | 58 | 1009.6 |
| 20260504021527 | 45 | 360 | 1.0 | 4.0 | 0.00 | 0.00 | 0.00 | 58 | 1009.6 |
| 20260504021024 | 45 | 360 | 0.0 | 2.0 | 0.00 | 0.00 | 0.00 | 58 | 1009.6 |
| 20260504020524 | 45 | 360 | 0.0 | 1.0 | 0.00 | 0.00 | 0.00 | 57 | 1009.5 |
| 20260504020026 | 46 | 360 | 0.0 | 3.0 | 0.00 | 0.00 | 0.00 | 57 | 1009.6 |
| 20260504015524 | 46 | 360 | 0.0 | 3.0 | 0.00 | 0.00 | 0.00 | 56 | 1009.6 |
| 20260504015024 | 46 | 360 | 0.0 | 3.0 | 0.00 | 0.00 | 0.00 | 56 | 1009.5 |
| 20260504014524 | 45 | 360 | 0.0 | 4.0 | 0.00 | 0.00 | 0.00 | 56 | 1009.5 |
| 20260504014023 | 45 | 360 | 0.0 | 5.0 | 0.00 | 0.00 | 0.00 | 56 | 1009.4 |
| 20260504013523 | 45 | 360 | 0.0 | 4.0 | 0.00 | 0.00 | 0.00 | 56 | 1009.4 |
| 20260504013030 | 45 | 360 | 1.0 | 6.0 | 0.00 | 0.00 | 0.00 | 55 | 1009.3 |
| 20260504012525 | 45 | 360 | 1.0 | 6.0 | 0.00 | 0.00 | 0.00 | 55 | 1009.4 |
| 20260504012024 | 46 | 360 | 2.0 | 6.0 | 0.00 | 0.00 | 0.00 | 55 | 1009.5 |
| 20260504011523 | 46 | 360 | 2.0 | 8.0 | 0.00 | 0.00 | 0.00 | 54 | 1009.6 |
| 20260504011022 | 46 | 360 | 2.0 | 10.0 | 0.00 | 0.00 | 0.00 | 53 | 1009.4 |
| 20260504010522 | 46 | 360 | 3.0 | 10.0 | 0.00 | 0.00 | 0.00 | 53 | 1009.5 |
| 20260504010022 | 46 | 360 | 1.0 | 6.0 | 0.00 | 0.00 | 0.00 | 52 | 1009.5 |
| 20260504005522 | 46 | 360 | 3.0 | 10.0 | 0.00 | 0.00 | 0.00 | 51 | 1009.4 |
| 20260504005022 | 47 | 360 | 5.0 | 10.0 | 0.00 | 0.00 | 0.00 | 51 | 1009.4 |
| 20260504004522 | 47 | 360 | 4.0 | 12.0 | 0.00 | 0.00 | 0.00 | 50 | 1009.5 |
| 20260504004021 | 46 | 360 | 6.0 | 12.0 | 0.00 | 0.00 | 0.00 | 51 | 1009.5 |
| 20260504003521 | 46 | 360 | 8.0 | 13.0 | 0.00 | 0.00 | 0.00 | 51 | 1009.6 |
| 20260504003022 | 45 | 360 | 7.0 | 13.0 | 0.00 | 0.00 | 0.00 | 52 | 1009.6 |
| 20260504002521 | 45 | 360 | 2.0 | 5.0 | 0.00 | 0.00 | 0.00 | 53 | 1009.6 |
| 20260504002021 | 45 | 360 | 2.0 | 5.0 | 0.00 | 0.00 | 0.00 | 52 | 1009.4 |
| 20260504001521 | 46 | 360 | 2.0 | 4.0 | 0.00 | 0.00 | 0.00 | 52 | 1009.4 |
| 20260504001020 | 46 | 360 | 2.0 | 8.0 | 0.00 | 0.00 | 0.00 | 51 | 1009.3 |
| 20260504000522 | 46 | 360 | 2.0 | 8.0 | 0.00 | 0.00 | 0.00 | 51 | 1009.3 |
| 20260504000020 | 46 | 360 | 3.0 | 11.0 | 0.00 | 0.00 | 0.00 | 50 | 1009.3 |
| 20260503235520 | 46 | 360 | 4.0 | 11.0 | 0.00 | 0.00 | 0.00 | 51 | 1009.3 |
| 20260503235020 | 47 | 360 | 4.0 | 8.0 | 0.00 | 0.00 | 0.00 | 49 | 1009.2 |
| 20260503234520 | 47 | 360 | 3.0 | 12.0 | 0.00 | 0.00 | 0.00 | 49 | 1009.2 |
| 20260503234020 | 47 | 360 | 4.0 | 12.0 | 0.00 | 0.00 | 0.00 | 49 | 1009.1 |
| 20260503233520 | 47 | 360 | 5.0 | 9.0 | 0.00 | 0.00 | 0.00 | 49 | 1009.1 |
| 20260503233019 | 48 | 360 | 2.0 | 6.0 | 0.00 | 0.00 | 0.00 | 48 | 1008.9 |
| 20260503232520 | 48 | 360 | 1.0 | 6.0 | 0.00 | 0.00 | 0.00 | 47 | 1008.9 |
| 20260503232019 | 48 | 360 | 3.0 | 11.0 | 0.00 | 0.00 | 0.00 | 48 | 1009.0 |
| 20260503231521 | 48 | 360 | 4.0 | 11.0 | 0.00 | 0.00 | 0.00 | 47 | 1009.0 |
| 20260503231019 | 48 | 360 | 6.0 | 12.0 | 0.00 | 0.00 | 0.00 | 46 | 1009.0 |
| 20260503230520 | 48 | 360 | 5.0 | 13.0 | 0.00 | 0.00 | 0.00 | 47 | 1009.1 |
| 20260503230018 | 48 | 360 | 4.0 | 14.0 | 0.00 | 0.00 | 0.00 | 48 | 1009.1 |
| 20260503225518 | 48 | 360 | 5.0 | 14.0 | 0.00 | 0.00 | 0.00 | 46 | 1009.1 |
| 20260503225018 | 48 | 360 | 3.0 | 14.0 | 0.00 | 0.00 | 0.00 | 47 | 1009.0 |
| 20260503224518 | 48 | 360 | 4.0 | 16.0 | 0.00 | 0.00 | 0.00 | 46 | 1009.0 |
| 20260503224019 | 48 | 360 | 3.0 | 16.0 | 0.00 | 0.00 | 0.00 | 46 | 1009.0 |
| 20260503223519 | 48 | 360 | 5.0 | 12.0 | 0.00 | 0.00 | 0.00 | 46 | 1008.9 |
| 20260503223018 | 48 | 360 | 4.0 | 15.0 | 0.00 | 0.00 | 0.00 | 46 | 1008.9 |
| 20260503222518 | 48 | 360 | 7.0 | 15.0 | 0.00 | 0.00 | 0.00 | 44 | 1008.9 |
| 20260503222017 | 48 | 360 | 5.0 | 13.0 | 0.00 | 0.00 | 0.00 | 44 | 1009.0 |
| 20260503221517 | 48 | 360 | 8.0 | 14.0 | 0.00 | 0.00 | 0.00 | 44 | 1009.0 |
| 20260503221017 | 48 | 360 | 8.0 | 16.0 | 0.00 | 0.00 | 0.00 | 44 | 1008.9 |
| 20260503220517 | 48 | 360 | 8.0 | 20.0 | 0.00 | 0.00 | 0.00 | 44 | 1009.0 |
| 20260503220016 | 48 | 360 | 8.0 | 20.0 | 0.00 | 0.00 | 0.00 | 44 | 1009.0 |
| 20260503215516 | 48 | 360 | 10.0 | 17.0 | 0.00 | 0.00 | 0.00 | 43 | 1009.0 |
| 20260503215018 | 48 | 360 | 9.0 | 14.0 | 0.00 | 0.00 | 0.00 | 42 | 1009.0 |
| 20260503214515 | 48 | 360 | 6.0 | 16.0 | 0.00 | 0.00 | 0.00 | 41 | 1009.0 |
| 20260503214015 | 48 | 360 | 8.0 | 18.0 | 0.00 | 0.00 | 0.00 | 42 | 1008.9 |
| 20260503213515 | 48 | 360 | 11.0 | 18.0 | 0.00 | 0.00 | 0.00 | 41 | 1008.8 |
| 20260503213016 | 48 | 360 | 9.0 | 18.0 | 0.00 | 0.00 | 0.00 | 41 | 1008.9 |
| 20260503212515 | 48 | 360 | 8.0 | 19.0 | 0.00 | 0.00 | 0.00 | 41 | 1008.9 |
| 20260503212016 | 48 | 360 | 9.0 | 19.0 | 0.00 | 0.00 | 0.00 | 40 | 1009.0 |
| 20260503211515 | 49 | 360 | 11.0 | 23.0 | 0.00 | 0.00 | 0.00 | 39 | 1008.7 |